Location: Fiennes
(50.8274°N, 1.8253°E)
Time: 00:46:36
(UTC+00:00)

Cosmos 2098 Rocket - Pass Details

Date: 15 May 2026
Orbit: 346 x 837 km, 82.9° (Epoch: 9 June)

Event Time Altitude Azimuth Distance (km) Brightness Sun altitude
Exits shadow 20:52:53 12° 158° (SSE) 1,990 5.1 -10.2°
Maximum altitude 20:56:52 38° 93° (E) 957 3.7 -10.6°
Drops below altitude 10° 21:00:39 10° 26° (NNE) 1,849 5.8 -11.0°
Sets 21:02:45 0° 18° (NNE) 2,664 6.8 -11.2°
